When you browse on this site, cookies collect data to enhance your experience and personalize the content and advertising you see.
Visit our Privacy Policy to learn more. By continuing to use the site, you agree to this use of cookies and data.
  • en France
  • Liste des pays
  • À 7 jours
  • Température de l'eau
  • Carte satellitaire
  • Carte météo
  • Widgets météo
  • user-avatar
    Se connecter

    Météo par heure à Chakhansur

    Ce jour, 16 Janvier, Mercredi

    Heure Température Précipitation Vent Pression Humidité
    00:00 +16°C° 0 mm 0 m/s 719 mmHg 25%
    01:00 +16°C° 0 mm 0 m/s 719 mmHg 26%
    02:00 +18°C° 0 mm 1 m/s 719 mmHg 27%
    03:00 +18°C° 0 mm 1 m/s 719 mmHg 28%
    04:00 +16°C° 0 mm 2 m/s 719 mmHg 27%
    05:00 +16°C° 0 mm 2 m/s 719 mmHg 30%
    06:00 +15°C° 0 mm 2 m/s 720 mmHg 33%
    07:00 +15°C° 0 mm 2 m/s 720 mmHg 35%
    08:00 +16°C° 0 mm 1 m/s 720 mmHg 32%
    09:00 +19°C° 0 mm 1 m/s 721 mmHg 28%
    10:00 +21°C° 0 mm 1 m/s 722 mmHg 24%
    11:00 +22°C° 0 mm 1 m/s 721 mmHg 22%
    12:00 +23°C° 0 mm 1 m/s 721 mmHg 20%
    13:00 +24°C° 0 mm 1 m/s 721 mmHg 18%
    14:00 +24°C° 0 mm 1 m/s 720 mmHg 18%
    15:00 +24°C° 0 mm 1 m/s 720 mmHg 18%
    16:00 +24°C° 0 mm 1 m/s 720 mmHg 17%
    17:00 +23°C° 0 mm 1 m/s 720 mmHg 19%
    18:00 +22°C° 0 mm 1 m/s 720 mmHg 21%
    19:00 +20°C° 0 mm 1 m/s 720 mmHg 23%
    20:00 +20°C° 0 mm 1 m/s 720 mmHg 23%
    21:00 +19°C° 0 mm 2 m/s 720 mmHg 24%
    22:00 +18°C° 0 mm 2 m/s 720 mmHg 25%
    23:00 +18°C° 0 mm 2 m/s 720 mmHg 26%

    Demain, 17 Janvier, Jeudi

    Heure Température Précipitation Vent Pression Humidité
    00:00 +18°C° 0 mm 2 m/s 720 mmHg 26%
    01:00 +18°C° 0 mm 3 m/s 720 mmHg 27%
    02:00 +17°C° 0 mm 3 m/s 719 mmHg 29%
    03:00 +17°C° 0 mm 3 m/s 719 mmHg 30%
    04:00 +17°C° 0 mm 3 m/s 718 mmHg 32%
    05:00 +16°C° 0 mm 3 m/s 719 mmHg 33%
    06:00 +16°C° 0 mm 3 m/s 719 mmHg 35%
    07:00 +16°C° 0 mm 3 m/s 719 mmHg 36%
    08:00 +18°C° 0 mm 4 m/s 719 mmHg 33%
    09:00 +19°C° 0 mm 4 m/s 719 mmHg 29%
    10:00 +21°C° 0 mm 5 m/s 719 mmHg 25%
    11:00 +23°C° 0 mm 5 m/s 719 mmHg 23%
    12:00 +26°C° 0 mm 5 m/s 718 mmHg 21%
    13:00 +28°C° 0 mm 5 m/s 718 mmHg 18%
    14:00 +28°C° 0 mm 4 m/s 717 mmHg 18%
    15:00 +28°C° 0 mm 3 m/s 716 mmHg 18%
    16:00 +28°C° 0 mm 2 m/s 716 mmHg 18%
    17:00 +27°C° 0 mm 4 m/s 716 mmHg 19%
    18:00 +26°C° 0 mm 5 m/s 716 mmHg 20%
    19:00 +24°C° 0 mm 6 m/s 715 mmHg 21%
    20:00 +24°C° 0 mm 6 m/s 715 mmHg 22%
    21:00 +23°C° 0 mm 5 m/s 714 mmHg 22%
    22:00 +22°C° 0 mm 5 m/s 714 mmHg 23%
    23:00 +23°C° 0 mm 5 m/s 714 mmHg 24%

    Après-demain, 18 Janvier, Vendredi

    Heure Température Précipitation Vent Pression Humidité
    00:00 +23°C° 0 mm 6 m/s 714 mmHg 24%
    01:00 +24°C° 0 mm 6 m/s 713 mmHg 24%
    02:00 +23°C° 0 mm 7 m/s 713 mmHg 28%
    03:00 +22°C° 0 mm 9 m/s 713 mmHg 31%
    04:00 +22°C° 0 mm 10 m/s 713 mmHg 35%
    05:00 +21°C° 0 mm 8 m/s 714 mmHg 37%
    06:00 +20°C° 0 mm 7 m/s 714 mmHg 40%
    07:00 +20°C° 0 mm 6 m/s 715 mmHg 43%
    08:00 +21°C° 0 mm 6 m/s 716 mmHg 38%
    09:00 +21°C° 0 mm 6 m/s 716 mmHg 33%
    10:00 +22°C° 0 mm 6 m/s 717 mmHg 28%
    11:00 +22°C° 0 mm 6 m/s 717 mmHg 22%
    12:00 +23°C° 0 mm 5 m/s 717 mmHg 17%
    13:00 +23°C° 0 mm 5 m/s 716 mmHg 11%
    14:00 +23°C° 0 mm 5 m/s 716 mmHg 9%
    15:00 +23°C° 0 mm 5 m/s 716 mmHg 8%
    16:00 +22°C° 0 mm 5 m/s 716 mmHg 6%
    17:00 +21°C° 0 mm 5 m/s 716 mmHg 6%
    18:00 +20°C° 0 mm 5 m/s 716 mmHg 6%
    19:00 +19°C° 0 mm 4 m/s 716 mmHg 6%
    20:00 +19°C° 0 mm 4 m/s 717 mmHg 6%
    21:00 +18°C° 0 mm 3 m/s 717 mmHg 6%
    22:00 +18°C° 0 mm 3 m/s 717 mmHg 6%
    23:00 +17°C° 0 mm 3 m/s 717 mmHg 7%

    19 Janvier, Samedi

    Heure Température Précipitation Vent Pression Humidité
    00:00 +16°C° 0 mm 2 m/s 716 mmHg 7%
    01:00 +16°C° 0 mm 2 m/s 716 mmHg 8%
    02:00 +15°C° 0 mm 2 m/s 716 mmHg 10%
    03:00 +13°C° 0 mm 3 m/s 716 mmHg 11%
    04:00 +13°C° 0 mm 3 m/s 715 mmHg 12%
    05:00 +12°C° 0 mm 3 m/s 716 mmHg 15%
    06:00 +12°C° 0 mm 3 m/s 716 mmHg 17%
    07:00 +11°C° 0 mm 3 m/s 716 mmHg 19%
    08:00 +12°C° 0 mm 3 m/s 716 mmHg 19%
    09:00 +14°C° 0 mm 3 m/s 717 mmHg 18%
    10:00 +16°C° 0 mm 3 m/s 717 mmHg 18%
    11:00 +17°C° 0 mm 3 m/s 716 mmHg 18%
    12:00 +18°C° 0 mm 3 m/s 716 mmHg 18%
    13:00 +19°C° 0 mm 3 m/s 715 mmHg 19%
    14:00 +19°C° 0 mm 3 m/s 715 mmHg 19%
    15:00 +20°C° 0 mm 2 m/s 715 mmHg 20%
    16:00 +20°C° 0 mm 2 m/s 714 mmHg 21%
    17:00 +19°C° 0 mm 3 m/s 714 mmHg 21%
    18:00 +18°C° 0 mm 3 m/s 715 mmHg 22%
    19:00 +17°C° 0 mm 4 m/s 715 mmHg 22%
    20:00 +15°C° 0 mm 5 m/s 715 mmHg 25%
    21:00 +14°C° 0 mm 7 m/s 716 mmHg 27%
    22:00 +12°C° 0 mm 8 m/s 716 mmHg 30%
    23:00 +11°C° 0 mm 9 m/s 716 mmHg 31%

    20 Janvier, Dimanche

    Heure Température Précipitation Vent Pression Humidité
    00:00 +11°C° 0 mm 9 m/s 717 mmHg 32%
    01:00 +9°C° 0 mm 10 m/s 717 mmHg 33%
    02:00 +8°C° 0 mm 10 m/s 718 mmHg 34%
    03:00 +8°C° 0 mm 9 m/s 718 mmHg 36%
    04:00 +7°C° 0 mm 9 m/s 719 mmHg 37%
    05:00 +7°C° 0 mm 9 m/s 720 mmHg 39%
    06:00 +6°C° 0 mm 9 m/s 720 mmHg 41%
    07:00 +6°C° 0 mm 9 m/s 721 mmHg 42%
    08:00 +7°C° 0 mm 9 m/s 722 mmHg 39%
    09:00 +8°C° 0 mm 9 m/s 722 mmHg 36%
    10:00 +8°C° 0 mm 10 m/s 723 mmHg 33%
    11:00 +10°C° 0 mm 9 m/s 722 mmHg 30%
    12:00 +11°C° 0 mm 9 m/s 722 mmHg 28%
    13:00 +12°C° 0 mm 9 m/s 721 mmHg 25%
    14:00 +11°C° 0 mm 9 m/s 721 mmHg 24%
    15:00 +11°C° 0 mm 9 m/s 721 mmHg 23%
    16:00 +11°C° 0 mm 9 m/s 720 mmHg 21%
    17:00 +10°C° 0 mm 8 m/s 721 mmHg 22%
    18:00 +10°C° 0 mm 7 m/s 721 mmHg 23%
    19:00 +9°C° 0 mm 7 m/s 722 mmHg 24%
    20:00 +8°C° 0 mm 7 m/s 722 mmHg 28%
    21:00 +8°C° 0 mm 7 m/s 722 mmHg 31%
    22:00 +6°C° 0 mm 7 m/s 722 mmHg 34%
    23:00 +6°C° 0 mm 7 m/s 722 mmHg 36%

    21 Janvier, Lundi

    Heure Température Précipitation Vent Pression Humidité
    00:00 +5°C° 0 mm 7 m/s 722 mmHg 37%
    01:00 +5°C° 0 mm 8 m/s 722 mmHg 39%
    02:00 +4°C° 0 mm 8 m/s 722 mmHg 41%
    03:00 +4°C° 0 mm 8 m/s 722 mmHg 42%
    04:00 +2°C° 0 mm 8 m/s 721 mmHg 44%
    05:00 +3°C° 0 mm 7 m/s 722 mmHg 45%
    06:00 +3°C° 0 mm 7 m/s 722 mmHg 47%
    07:00 +2°C° 0 mm 6 m/s 722 mmHg 48%
    08:00 +3°C° 0 mm 7 m/s 723 mmHg 45%
    09:00 +5°C° 0 mm 7 m/s 723 mmHg 41%
    10:00 +6°C° 0 mm 7 m/s 723 mmHg 37%
    11:00 +8°C° 0 mm 7 m/s 723 mmHg 34%
    12:00 +9°C° 0 mm 7 m/s 722 mmHg 31%
    13:00 +10°C° 0 mm 6 m/s 721 mmHg 28%
    14:00 +10°C° 0 mm 6 m/s 721 mmHg 27%
    15:00 +10°C° 0 mm 6 m/s 721 mmHg 26%
    16:00 +10°C° 0 mm 5 m/s 720 mmHg 26%
    17:00 +10°C° 0 mm 5 m/s 721 mmHg 27%
    18:00 +10°C° 0 mm 4 m/s 721 mmHg 28%
    19:00 +8°C° 0 mm 4 m/s 721 mmHg 30%
    20:00 +8°C° 0 mm 4 m/s 721 mmHg 31%
    21:00 +7°C° 0 mm 4 m/s 721 mmHg 33%
    22:00 +6°C° 0 mm 4 m/s 721 mmHg 34%
    23:00 +6°C° 0 mm 4 m/s 721 mmHg 36%
    Voir plus